Vorticity
-6 -5 -5 -7 -7 -7 -6 -5 -3 1 6 9 7 4 2 5 7 8 8 6 9 12 14 14 12 10 8 7 5 5 6 5 4 6 8 10 9 6 4 4 4 5 9 14 14 11 6 4 11 20 25 16 6 6 7 6 3 2 2 3 5 7 9 10 11 12 13 17 20
-7 -7 -7 -9 -10 -9 -7 -5 -4 1 4 2 3 5 5 2 7 9 8 6 8 10 11 11 11 10 10 10 8 6 5 6 3 2 3 6 8 7 6 6 7 11 16 23 21 17 14 14 19 19 14 4 5 8 10 10 5 3 3 8 11 13 13 11 9 9 12 17 19
-3 -8 -8 -8 -10 -9 -7 -3 -2 0 2 -0 -2 0 3 4 9 8 5 3 5 7 9 7 9 10 12 17 19 11 4 4 6 3 0 -1 2 3 5 7 8 8 9 13 15 16 19 24 24 15 3 -2 4 9 10 8 5 6 9 11 14 15 13 10 7 9 14 21 21
12 -0 -6 -7 -9 -9 -6 -1 0 -0 -1 0 -4 -6 -3 3 9 10 7 2 -1 -1 1 -1 3 7 11 12 17 16 12 5 10 9 5 0 0 3 8 10 8 2 -2 2 10 16 23 31 27 15 4 2 6 7 7 2 3 6 9 11 10 8 6 3 4 11 18 22 19
23 18 7 -4 -8 -9 -7 -3 -1 -2 -3 -3 -6 -7 -6 -1 7 11 13 10 5 -0 -5 -7 -4 2 7 10 4 5 7 5 6 5 3 1 1 4 8 12 8 -1 -8 -4 11 22 29 36 26 16 9 10 12 9 5 1 2 3 4 4 2 1 1 2 9 17 22 20 14
22 32 31 17 2 -5 -8 -7 -7 -7 -7 -8 -7 -7 -6 -4 3 7 9 10 14 14 10 4 2 -0 -1 2 3 2 2 5 5 6 5 2 4 7 10 11 7 3 0 -0 0 5 12 17 16 14 14 18 20 17 11 3 2 0 -1 -3 -2 -1 3 9 17 21 20 16 9
24 34 42 42 28 13 0 -7 -10 -12 -12 -12 -11 -9 -7 -5 -1 2 3 1 5 12 19 24 24 17 9 2 -1 -3 -3 2 3 4 5 9 9 10 9 7 8 11 14 13 7 1 -3 -1 13 22 26 26 27 24 16 6 -0 -3 -4 -3 -1 3 8 15 18 18 15 9 4
19 26 35 44 44 36 22 6 -6 -12 -14 -14 -14 -12 -9 -7 -4 -2 -3 -6 -12 -13 -8 4 20 26 23 14 6 1 -2 -2 2 3 3 2 -1 -4 -4 -1 4 8 11 13 11 0 -9 -6 14 22 22 16 17 15 11 2 -2 -3 -2 1 4 8 12 15 15 12 9 4 3
11 15 21 29 38 43 40 28 9 -4 -12 -14 -14 -13 -11 -9 -7 -7 -7 -10 -16 -21 -21 -17 -7 5 16 22 16 10 6 4 6 7 7 2 -8 -16 -20 -15 -8 -7 -9 -12 -17 -26 -31 -22 -2 6 4 -4 -3 0 3 3 3 3 5 8 10 12 13 13 11 8 5 3 3
10 11 14 17 25 33 40 40 27 11 -3 -10 -9 -7 -5 -7 -9 -11 -13 -14 -13 -14 -16 -15 -18 -17 -10 3 12 14 13 12 14 17 18 16 7 -6 -17 -22 -18 -19 -24 -33 -40 -44 -44 -40 -25 -14 -9 -9 -5 1 8 12 10 10 11 12 12 12 11 10 8 5 3 2 3
21 21 20 19 20 24 28 32 28 21 15 12 17 21 21 15 5 -2 -7 -10 -11 -12 -13 -14 -18 -19 -18 -16 -7 -1 4 6 8 11 14 16 15 9 0 -11 -15 -18 -23 -29 -34 -34 -33 -32 -31 -24 -14 -2 5 12 17 18 13 12 11 11 11 10 9 7 5 3 2 3 3
33 36 38 36 31 27 24 22 21 24 30 39 45 50 52 52 44 36 26 15 7 1 -3 -10 -14 -15 -16 -17 -16 -14 -10 -6 -7 -7 -5 -1 6 10 10 5 -3 -10 -15 -20 -23 -22 -20 -17 -20 -17 -7 10 16 19 19 16 14 12 11 10 10 8 6 4 3 2 2 3 3
40 43 45 44 41 36 31 26 23 23 23 23 21 24 33 50 65 72 72 64 52 41 30 19 10 1 -7 -15 -17 -19 -18 -16 -5 7 19 33 42 46 46 42 31 19 9 0 -6 -9 -10 -8 -6 3 15 28 24 20 18 16 15 13 11 10 8 6 3 2 2 3 3 4 3
38 39 37 33 32 31 30 27 21 15 9 3 3 9 20 35 49 61 70 75 73 69 62 54 47 38 23 3 -13 -21 -19 -5 26 48 63 71 79 84 85 83 74 64 52 41 30 21 14 11 19 29 36 32 24 20 19 17 16 14 11 9 6 3 2 2 3 4 4 4 4
26 28 27 25 27 30 33 34 31 28 25 24 28 32 33 28 24 27 34 45 54 60 63 64 66 67 60 41 15 2 5 24 36 37 33 31 39 51 61 68 70 70 70 68 60 50 42 37 40 38 32 23 22 20 17 14 15 14 12 7 1 -0 1 4 4 5 5 6 5
15 16 17 18 22 27 31 35 38 40 41 41 36 27 15 5 6 9 16 27 40 50 58 64 71 78 82 78 56 37 24 18 12 6 3 3 10 19 29 37 42 48 55 61 59 53 46 38 30 23 20 22 23 19 14 13 17 16 11 2 -2 -2 1 4 3 4 5 6 5
4 4 4 5 7 10 13 17 21 23 23 20 12 5 1 -1 -1 0 5 14 25 35 44 52 60 69 75 77 57 31 9 -2 -2 -0 2 3 6 11 17 22 26 31 36 40 37 31 24 16 14 17 23 29 24 15 10 14 19 17 9 -1 -3 -2 1 2 -1 -0 2 4 2
1 -0 -1 -1 -1 -0 2 4 5 6 5 5 3 2 2 2 -2 -4 -2 4 15 22 27 29 31 35 39 41 25 9 -3 -5 -2 2 5 6 7 9 11 13 15 19 21 21 16 11 7 8 16 24 29 27 15 8 8 16 20 15 7 -1 -2 -1 1 0 -3 -2 -0 1 -2
3 3 2 1 0 0 1 2 2 2 3 4 3 3 4 5 2 -1 -3 1 10 16 18 15 11 11 12 13 8 3 -0 -1 1 3 6 9 9 9 8 7 7 8 9 8 6 6 9 16 24 27 24 13 6 6 11 17 17 12 5 -1 -1 0 1 1 -1 -1 0 -0 -4
4 3 3 2 2 1 1 1 1 2 3 4 4 4 5 6 5 3 2 4 9 14 16 15 9 5 2 1 1 1 1 1 2 4 6 9 10 10 9 8 7 6 6 6 8 12 16 21 22 18 12 4 7 12 16 16 13 8 3 -1 -1 -0 1 3 3 4 3 2 -2
2 2 2 1 1 0 -0 -0 0 1 3 5 5 5 5 5 5 6 7 9 10 12 15 19 14 5 -3 -6 -4 -0 3 4 5 6 8 10 10 11 11 11 10 9 9 10 13 15 16 16 13 10 7 7 12 15 15 13 9 5 1 -1 -1 0 3 5 7 8 7 4 0
-0 -1 -1 -1 -1 -1 -0 0 1 3 5 7 6 5 5 5 6 7 8 10 10 11 13 18 12 2 -7 -10 -4 3 8 11 11 12 13 13 12 11 10 10 10 10 11 12 14 14 14 13 12 10 9 9 10 9 8 5 3 1 0 1 3 4 6 8 10 11 9 5 1
-1 0 1 1 2 3 4 5 5 6 8 9 7 5 5 5 6 7 7 9 10 10 10 12 5 -3 -9 -9 -1 6 11 15 15 14 13 13 12 10 9 8 8 10 11 13 13 12 13 13 12 10 7 5 4 3 1 0 0 2 4 6 8 10 11 12 12 11 8 4 1
7 8 9 9 9 9 9 9 9 10 10 9 6 5 4 5 6 6 7 8 9 8 7 4 -2 -5 -4 2 9 13 14 15 12 11 11 12 13 12 10 9 10 11 11 11 10 9 9 10 11 10 9 7 5 3 2 1 3 5 7 8 9 10 11 10 9 8 6 4 3
15 16 15 15 14 13 13 12 12 12 11 8 6 5 4 5 6 6 7 7 7 5 2 -2 -1 3 7 12 15 16 14 14 12 11 12 12 12 11 9 8 9 10 11 12 13 14 17 20 20 18 15 12 8 5 4 4 6 6 7 6 6 6 6 6 4 4 3 3 3
20 19 17 14 13 13 14 16 16 15 13 11 9 7 6 5 6 6 7 7 5 3 2 2 7 11 14 15 15 13 12 13 13 13 12 11 10 9 9 12 15 18 21 23 25 26 26 25 21 16 11 7 3 1 1 2 3 3 3 2 1 1 1 1 1 1 2 2 2
19 18 16 12 11 12 15 18 20 19 18 16 14 12 10 9 9 10 10 10 8 8 9 11 14 16 16 14 12 10 9 11 9 9 8 8 10 14 19 24 26 27 26 24 22 19 16 13 8 5 1 -1 -5 -6 -6 -3 -2 -1 -1 -1 -1 -1 -1 0 1 1 2 2 1
12 14 15 16 18 17 15 13 17 20 22 22 20 19 17 16 16 16 16 15 14 15 16 17 16 16 14 12 10 9 8 8 7 6 6 8 15 21 25 26 24 20 15 11 8 6 4 2 2 1 -1 -4 -5 -5 -5 -3 -2 -1 -1 -1 -0 1 1 1 1 1 1 1 0
7 10 14 20 24 20 13 8 10 16 22 24 23 22 21 20 19 18 18 18 18 17 16 16 16 15 14 13 13 13 14 14 12 11 11 13 17 18 17 14 11 8 4 2 2 2 2 2 3 3 3 2 2 2 1 1 2 2 2 3 3 3 3 3 2 1 -0 -1 0
8 11 15 18 18 15 10 2 3 10 17 22 20 19 18 17 16 16 17 18 17 16 16 16 17 16 16 15 17 18 19 19 17 15 13 13 12 10 8 6 4 3 2 1 1 2 2 2 3 3 4 5 5 5 4 4 5 5 5 5 5 4 3 2 1 0 0 1 2
15 18 19 18 17 18 16 9 6 10 14 17 16 16 15 14 14 15 15 15 14 14 15 15 15 14 13 14 14 15 15 15 14 12 10 9 7 5 3 3 3 3 3 3 3 3 3 3 3 3 4 4 4 4 4 4 5 5 5 5 4 3 2 1 1 2 3 4 6
14 16 22 29 29 24 19 13 9 10 13 14 14 14 14 14 14 14 13 13 12 12 12 11 10 8 8 7 7 8 8 9 9 8 7 5 4 2 2 2 2 3 4 4 5 5 5 5 4 4 4 3 3 3 4 4 4 4 4 3 3 2 2 2 3 4 6 7 8
9 8 10 16 22 21 16 12 11 11 12 12 12 11 10 10 10 10 10 9 9 8 7 6 5 4 3 3 3 4 5 5 5 5 4 3 3 2 2 2 2 3 3 3 4 4 4 4 4 4 3 3 4 4 4 5 5 4 3 3 3 3 4 4 6 7 8 8 8
5 5 6 7 9 10 11 12 11 11 10 9 8 6 4 3 3 5 6 6 6 6 5 4 3 3 2 2 2 3 3 3 3 3 3 3 3 3 3 3 3 3 3 3 3 3 3 3 3 3 4 4 4 5 5 5 4 4 3 3 4 5 6 7 7 8 8 8 8
4 4 4 5 5 5 7 8 9 9 9 9 7 6 5 4 4 5 5 5 5 5 5 4 4 3 3 3 3 3 3 3 2 3 3 3 3 3 3 4 4 4 4 4 3 3 3 3 3 4 4 5 5 5 5 4 4 5 5 6 7 7 8 8 8 8 9 9 9
4 4 4 4 3 3 4 5 6 7 7 8 7 7 7 7 7 6 6 5 6 6 6 4 4 4 4 3 3 3 3 3 3 3 3 4 4 4 4 4 4 4 4 4 4 4 4 4 5 5 6 6 6 6 5 5 6 7 7 8 8 9 9 10 10 10 10 11 11
4 4 4 3 3 3 3 3 4 4 5 6 6 6 6 6 6 6 6 6 6 6 6 4 4 4 4 3 3 3 3 4 4 4 4 4 5 5 4 4 4 4 4 5 5 6 6 7 7 8 8 8 8 8 8 8 8 9 9 9 10 10 11 11 12 13 14 15 16
5 4 4 4 4 3 4 4 4 4 4 4 5 5 6 6 6 6 6 6 6 6 5 5 5 5 4 4 4 4 5 5 6 6 6 6 6 6 6 5 4 5 6 7 8 8 9 10 10 10 10 10 10 9 9 9 10 10 10 11 12 12 13 14 15 17 18 19 20
5 4 4 5 5 4 4 5 6 6 6 5 5 5 5 6 6 6 6 6 7 7 6 6 6 5 5 5 5 6 6 6 7 7 7 7 6 7 7 6 6 7 8 8 9 10 10 10 10 10 10 10 10 10 10 10 10 11 12 13 14 15 16 17 18 19 20 21 21
6 5 5 5 6 6 6 7 7 7 7 7 7 6 6 5 6 6 7 8 8 8 8 7 6 6 6 6 7 7 7 7 7 7 7 7 7 7 7 8 8 8 9 9 9 10 10 10 9 9 9 9 9 10 10 11 11 12 13 14 15 16 16 17 18 18 18 18 18
7 7 7 7 7 7 8 8 8 9 9 9 9 8 7 6 6 7 8 9 9 9 9 9 8 7 7 8 8 8 7 7 7 7 8 8 8 8 8 8 8 9 9 9 9 9 9 8 8 8 9 9 10 10 11 11 12 12 13 14 14 14 14 14 15 15 15 14 14
Height
3055 3056 3058 3060 3062 3065 3067 3069 3071 3073 3074 3075 3075 3076 3078 3081 3082 3084 3085 3087 3089 3091 3093 3094 3096 3098 3099 3100 3101 3102 3103 3105 3106 3107 3108 3109 3111 3112 3114 3115 3116 3117 3118 3118 3119 3119 3120 3122 3123 3124 3124 3124 3125 3125 3124 3123 3123 3124 3125 3126 3126 3127 3128 3129 3129 3130 3130 3130 3130
3054 3056 3058 3059 3061 3063 3065 3067 3069 3071 3073 3074 3074 3075 3077 3079 3081 3083 3084 3085 3087 3089 3090 3092 3093 3095 3097 3098 3098 3099 3101 3102 3103 3105 3106 3107 3109 3110 3112 3113 3114 3115 3116 3117 3117 3118 3119 3120 3122 3123 3123 3123 3123 3122 3121 3120 3120 3121 3123 3123 3124 3125 3126 3127 3128 3128 3129 3129 3129
3054 3056 3057 3059 3060 3062 3063 3065 3066 3068 3070 3072 3073 3075 3076 3078 3079 3081 3083 3084 3085 3087 3088 3089 3091 3093 3095 3097 3097 3097 3098 3100 3101 3103 3104 3106 3107 3108 3110 3111 3112 3113 3114 3114 3114 3115 3117 3118 3119 3120 3121 3121 3120 3119 3118 3118 3118 3120 3121 3121 3123 3124 3124 3125 3126 3127 3127 3127 3127
3054 3055 3057 3058 3059 3060 3061 3063 3064 3066 3068 3070 3072 3073 3075 3077 3078 3079 3081 3082 3083 3085 3087 3088 3089 3091 3093 3095 3095 3095 3096 3098 3099 3101 3103 3104 3105 3106 3108 3109 3110 3112 3112 3112 3111 3112 3114 3116 3117 3118 3118 3118 3116 3116 3115 3116 3117 3118 3118 3119 3121 3122 3123 3123 3124 3125 3125 3125 3125
3053 3054 3055 3057 3058 3059 3060 3061 3063 3064 3066 3068 3069 3071 3073 3074 3076 3077 3079 3080 3082 3083 3085 3087 3088 3090 3091 3093 3094 3094 3095 3095 3097 3099 3100 3102 3103 3104 3105 3106 3108 3109 3110 3110 3109 3110 3112 3114 3115 3115 3114 3114 3113 3113 3114 3114 3115 3115 3116 3117 3118 3119 3121 3122 3123 3123 3124 3124 3124
3051 3052 3054 3055 3057 3058 3060 3061 3061 3063 3065 3066 3068 3069 3071 3072 3074 3075 3077 3078 3080 3083 3085 3086 3088 3089 3090 3091 3092 3093 3093 3093 3095 3096 3098 3099 3101 3102 3103 3103 3104 3105 3107 3107 3108 3108 3110 3112 3112 3112 3112 3112 3111 3111 3112 3112 3113 3113 3113 3114 3115 3117 3118 3120 3121 3122 3122 3122 3122
3049 3050 3051 3053 3055 3056 3058 3059 3060 3062 3063 3064 3065 3067 3068 3070 3072 3073 3075 3076 3078 3081 3083 3085 3086 3087 3088 3089 3089 3089 3090 3091 3093 3094 3096 3097 3098 3099 3100 3100 3101 3102 3103 3104 3105 3106 3108 3109 3110 3111 3111 3111 3110 3110 3109 3110 3110 3110 3111 3112 3113 3115 3117 3118 3120 3120 3121 3121 3121
3047 3048 3049 3050 3052 3054 3055 3057 3058 3060 3062 3063 3063 3065 3066 3068 3069 3071 3072 3074 3076 3078 3080 3082 3083 3083 3084 3085 3086 3086 3087 3089 3090 3092 3093 3095 3096 3097 3097 3098 3098 3100 3101 3102 3103 3104 3106 3107 3108 3110 3110 3109 3108 3108 3108 3108 3108 3108 3109 3111 3112 3114 3115 3117 3118 3119 3119 3119 3119
3045 3046 3047 3048 3049 3051 3052 3054 3056 3058 3059 3061 3062 3063 3065 3066 3067 3068 3070 3071 3073 3075 3077 3078 3079 3080 3081 3082 3082 3083 3084 3086 3088 3089 3091 3093 3094 3095 3095 3096 3097 3098 3099 3100 3101 3102 3103 3105 3107 3108 3108 3106 3106 3105 3106 3106 3107 3108 3108 3110 3111 3112 3114 3115 3116 3117 3118 3118 3118
3043 3044 3045 3046 3047 3048 3049 3051 3053 3055 3058 3060 3061 3063 3064 3065 3065 3067 3068 3069 3071 3073 3074 3075 3076 3076 3077 3078 3079 3080 3081 3083 3085 3087 3088 3090 3091 3092 3093 3094 3095 3095 3096 3097 3098 3099 3100 3102 3104 3105 3105 3104 3104 3104 3104 3105 3106 3107 3108 3109 3110 3111 3113 3114 3115 3116 3116 3116 3116
3041 3042 3043 3044 3045 3046 3048 3050 3053 3055 3058 3059 3061 3062 3063 3064 3064 3065 3067 3068 3069 3070 3071 3072 3072 3072 3072 3074 3075 3077 3078 3080 3082 3083 3085 3087 3088 3089 3090 3091 3092 3093 3094 3095 3096 3097 3098 3099 3100 3102 3103 3103 3103 3103 3103 3104 3105 3106 3107 3108 3108 3110 3111 3112 3113 3114 3114 3115 3115
3040 3041 3042 3043 3045 3047 3049 3051 3053 3056 3058 3059 3060 3061 3061 3062 3063 3064 3065 3067 3067 3067 3068 3068 3068 3068 3069 3071 3073 3074 3075 3077 3078 3080 3082 3084 3085 3086 3087 3088 3089 3091 3092 3093 3094 3095 3096 3097 3097 3099 3101 3102 3102 3102 3103 3103 3104 3105 3106 3106 3107 3108 3109 3110 3112 3112 3113 3113 3113
3040 3041 3042 3044 3045 3047 3049 3051 3053 3055 3056 3058 3059 3059 3059 3060 3061 3063 3064 3065 3065 3066 3066 3066 3066 3066 3067 3069 3071 3072 3074 3076 3078 3080 3082 3082 3083 3083 3084 3085 3086 3087 3088 3090 3091 3093 3094 3094 3095 3097 3099 3100 3101 3101 3101 3102 3103 3103 3104 3104 3105 3106 3108 3109 3110 3110 3111 3111 3111
3039 3040 3041 3043 3044 3046 3048 3050 3051 3053 3055 3056 3057 3057 3057 3058 3059 3060 3061 3061 3062 3062 3063 3063 3063 3063 3064 3067 3069 3072 3075 3078 3081 3082 3082 3082 3081 3081 3081 3081 3081 3082 3083 3085 3087 3089 3091 3092 3093 3096 3098 3098 3099 3099 3100 3101 3101 3102 3102 3102 3103 3105 3106 3107 3108 3108 3109 3109 3109
3037 3038 3039 3041 3043 3044 3046 3048 3049 3051 3052 3053 3054 3055 3056 3057 3058 3058 3058 3058 3058 3059 3059 3060 3060 3060 3061 3064 3068 3073 3078 3081 3082 3081 3080 3080 3079 3078 3078 3077 3077 3078 3078 3080 3082 3085 3087 3090 3093 3094 3095 3096 3096 3097 3098 3099 3100 3100 3100 3101 3102 3103 3104 3105 3106 3106 3107 3107 3107
3035 3037 3039 3040 3042 3043 3045 3046 3048 3049 3050 3052 3053 3054 3055 3056 3057 3058 3058 3057 3057 3057 3057 3057 3057 3058 3059 3063 3068 3075 3079 3080 3079 3078 3078 3077 3077 3076 3076 3075 3075 3076 3077 3078 3080 3083 3086 3088 3091 3092 3093 3093 3093 3095 3096 3098 3098 3098 3098 3099 3100 3101 3102 3103 3104 3105 3105 3105 3105
3036 3037 3039 3040 3042 3043 3044 3046 3047 3048 3049 3051 3052 3053 3054 3055 3056 3057 3057 3057 3057 3057 3056 3056 3057 3058 3060 3064 3068 3073 3075 3075 3076 3076 3076 3075 3075 3075 3075 3075 3076 3076 3077 3078 3080 3082 3084 3087 3088 3089 3090 3090 3091 3093 3095 3096 3096 3096 3096 3097 3098 3099 3100 3101 3102 3103 3103 3103 3103
3036 3037 3039 3040 3041 3042 3043 3045 3046 3047 3048 3049 3051 3052 3053 3054 3055 3056 3057 3057 3058 3058 3058 3058 3059 3060 3062 3064 3068 3070 3071 3073 3073 3073 3073 3073 3073 3073 3074 3075 3076 3076 3077 3078 3080 3081 3083 3084 3085 3086 3087 3088 3090 3092 3093 3094 3093 3093 3094 3095 3096 3098 3099 3099 3100 3101 3101 3101 3101
3036 3037 3038 3039 3041 3042 3043 3044 3045 3046 3047 3048 3050 3051 3053 3054 3055 3056 3057 3057 3058 3058 3059 3059 3060 3061 3063 3064 3066 3068 3070 3071 3072 3072 3072 3072 3072 3072 3073 3074 3074 3075 3076 3077 3078 3080 3081 3082 3083 3083 3085 3087 3089 3091 3091 3091 3090 3091 3092 3093 3095 3096 3097 3098 3098 3099 3099 3099 3099
3036 3037 3038 3039 3040 3041 3042 3043 3044 3045 3047 3048 3049 3051 3052 3053 3054 3055 3056 3057 3057 3058 3058 3059 3060 3061 3062 3064 3065 3067 3068 3069 3070 3070 3070 3070 3071 3071 3072 3073 3073 3074 3075 3076 3077 3078 3079 3079 3080 3082 3083 3086 3088 3088 3087 3087 3088 3089 3091 3092 3094 3095 3096 3096 3097 3097 3097 3097 3097
3036 3037 3038 3039 3040 3041 3042 3043 3044 3045 3046 3047 3049 3050 3051 3053 3054 3055 3055 3056 3057 3058 3058 3059 3059 3060 3062 3063 3064 3066 3067 3068 3068 3068 3068 3069 3069 3070 3071 3071 3072 3073 3073 3074 3075 3076 3077 3078 3079 3081 3083 3084 3084 3084 3084 3085 3086 3088 3090 3091 3093 3093 3094 3094 3095 3095 3095 3095 3095
3036 3037 3038 3039 3040 3041 3041 3042 3043 3044 3046 3047 3048 3050 3051 3052 3053 3054 3055 3056 3056 3057 3058 3058 3059 3060 3061 3062 3063 3064 3065 3066 3066 3067 3067 3067 3068 3068 3069 3069 3070 3071 3072 3073 3073 3075 3076 3078 3079 3080 3081 3081 3080 3081 3082 3084 3086 3088 3089 3090 3091 3091 3092 3092 3092 3093 3092 3092 3092
3037 3038 3038 3039 3040 3040 3041 3042 3043 3044 3045 3046 3048 3049 3050 3051 3052 3053 3054 3055 3055 3056 3057 3058 3058 3059 3060 3061 3061 3062 3063 3063 3064 3064 3065 3065 3066 3067 3068 3068 3069 3070 3071 3072 3073 3074 3076 3077 3077 3077 3077 3078 3078 3080 3082 3083 3085 3086 3087 3088 3088 3089 3089 3090 3090 3090 3090 3090 3090
3037 3038 3038 3039 3039 3040 3041 3042 3042 3043 3045 3046 3047 3048 3049 3050 3051 3052 3053 3054 3054 3055 3056 3057 3057 3058 3059 3059 3060 3060 3061 3062 3062 3063 3063 3064 3065 3066 3067 3068 3069 3069 3070 3071 3072 3073 3073 3073 3073 3074 3075 3076 3078 3079 3081 3083 3084 3084 3085 3086 3086 3087 3087 3087 3088 3088 3088 3088 3088
3036 3037 3037 3038 3039 3039 3040 3041 3042 3043 3044 3045 3046 3048 3048 3049 3050 3051 3052 3053 3053 3054 3055 3055 3056 3056 3057 3058 3058 3059 3060 3061 3062 3062 3063 3063 3064 3065 3066 3067 3067 3068 3068 3068 3069 3069 3070 3071 3072 3073 3074 3076 3078 3079 3080 3081 3082 3082 3083 3083 3084 3084 3084 3085 3085 3085 3085 3085 3085
3035 3036 3036 3037 3038 3038 3039 3040 3041 3042 3043 3043 3045 3046 3047 3048 3049 3050 3050 3051 3052 3053 3053 3054 3054 3055 3056 3056 3057 3058 3059 3060 3061 3061 3062 3062 3063 3063 3064 3064 3065 3065 3066 3067 3068 3068 3069 3070 3071 3073 3074 3075 3077 3077 3078 3078 3079 3079 3080 3081 3081 3082 3082 3082 3083 3083 3083 3083 3083
3034 3035 3035 3036 3037 3038 3038 3038 3039 3040 3041 3042 3043 3044 3045 3046 3047 3048 3049 3050 3050 3051 3052 3052 3053 3054 3055 3055 3056 3057 3058 3058 3059 3060 3060 3060 3061 3061 3062 3063 3063 3064 3065 3066 3067 3068 3069 3070 3071 3072 3073 3074 3075 3075 3075 3076 3077 3077 3078 3078 3079 3079 3079 3080 3080 3080 3080 3080 3080
3034 3034 3035 3035 3036 3036 3037 3037 3038 3039 3040 3040 3041 3042 3043 3044 3045 3046 3047 3048 3049 3050 3050 3051 3052 3053 3054 3054 3055 3056 3056 3057 3058 3058 3059 3059 3060 3060 3061 3062 3063 3063 3064 3065 3066 3067 3068 3069 3070 3071 3072 3073 3073 3073 3073 3074 3075 3075 3076 3076 3077 3077 3077 3077 3077 3077 3077 3077 3077
3033 3033 3034 3034 3034 3035 3036 3036 3037 3038 3038 3039 3039 3040 3042 3043 3044 3045 3046 3046 3048 3048 3049 3049 3050 3052 3052 3053 3054 3054 3055 3056 3057 3057 3058 3058 3059 3060 3060 3061 3062 3063 3063 3064 3065 3066 3067 3068 3068 3069 3070 3070 3071 3071 3072 3072 3073 3073 3073 3074 3074 3074 3074 3074 3074 3074 3074 3074 3074
3032 3032 3033 3033 3033 3034 3034 3035 3036 3037 3037 3038 3038 3039 3040 3042 3043 3043 3044 3045 3046 3047 3048 3048 3049 3050 3051 3052 3052 3053 3054 3055 3055 3056 3057 3058 3058 3058 3059 3060 3061 3061 3062 3063 3063 3064 3065 3066 3067 3067 3068 3068 3069 3069 3070 3071 3071 3071 3071 3072 3072 3072 3072 3072 3072 3072 3072 3072 3072
3032 3032 3032 3032 3033 3033 3033 3034 3035 3036 3036 3037 3038 3039 3040 3041 3042 3043 3043 3044 3045 3046 3047 3048 3048 3049 3049 3050 3051 3052 3053 3053 3054 3055 3056 3056 3057 3058 3058 3059 3059 3060 3061 3062 3062 3063 3063 3064 3064 3065 3066 3067 3067 3068 3068 3069 3069 3069 3069 3069 3070 3070 3070 3069 3069 3069 3069 3069 3069
3032 3032 3032 3032 3032 3032 3033 3033 3034 3035 3036 3037 3038 3038 3039 3040 3041 3042 3043 3043 3044 3045 3046 3046 3047 3048 3048 3049 3050 3051 3052 3053 3053 3054 3054 3055 3056 3056 3057 3058 3058 3059 3059 3060 3061 3061 3062 3063 3063 3063 3064 3065 3066 3066 3067 3067 3067 3068 3068 3068 3067 3067 3067 3067 3067 3067 3067 3066 3066
3031 3032 3032 3032 3032 3033 3033 3033 3034 3035 3036 3036 3037 3038 3038 3039 3040 3041 3042 3042 3043 3044 3045 3045 3046 3047 3048 3048 3049 3050 3051 3051 3052 3053 3053 3054 3054 3055 3055 3056 3057 3057 3058 3058 3059 3059 3060 3061 3061 3062 3062 3063 3063 3064 3064 3065 3065 3065 3065 3065 3065 3065 3064 3064 3064 3064 3064 3064 3063
3031 3031 3031 3032 3032 3033 3033 3034 3034 3035 3035 3036 3036 3037 3038 3038 3039 3039 3040 3041 3043 3043 3044 3045 3045 3046 3047 3047 3048 3049 3049 3050 3051 3052 3052 3053 3053 3054 3054 3054 3055 3056 3056 3057 3057 3058 3058 3059 3059 3059 3060 3060 3061 3061 3062 3062 3062 3062 3062 3062 3062 3062 3062 3062 3062 3062 3061 3061 3061
3030 3031 3031 3031 3032 3032 3033 3033 3034 3034 3035 3035 3035 3036 3037 3037 3038 3038 3039 3040 3041 3042 3043 3043 3044 3045 3045 3046 3047 3048 3048 3049 3050 3050 3051 3051 3052 3052 3053 3053 3053 3054 3054 3055 3055 3056 3056 3057 3057 3057 3058 3058 3058 3059 3059 3059 3059 3060 3060 3060 3060 3060 3059 3059 3059 3059 3058 3058 3058
3030 3030 3030 3030 3031 3031 3032 3032 3033 3033 3033 3034 3034 3035 3035 3036 3037 3037 3038 3039 3040 3040 3041 3042 3043 3043 3044 3045 3045 3046 3047 3048 3048 3049 3049 3050 3050 3050 3051 3051 3052 3052 3053 3053 3053 3054 3054 3055 3055 3055 3055 3056 3056 3057 3057 3057 3057 3058 3058 3058 3057 3057 3057 3057 3057 3056 3056 3056 3055
3029 3029 3029 3030 3030 3030 3030 3031 3031 3032 3033 3033 3033 3034 3034 3035 3035 3036 3037 3038 3038 3039 3040 3041 3042 3042 3043 3043 3044 3045 3045 3046 3047 3047 3048 3048 3048 3048 3049 3049 3050 3050 3051 3051 3052 3052 3053 3053 3053 3053 3053 3054 3054 3054 3055 3055 3055 3055 3055 3055 3055 3055 3054 3054 3054 3053 3053 3053 3053
3028 3028 3028 3029 3029 3029 3029 3030 3030 3030 3031 3031 3032 3033 3033 3033 3034 3035 3035 3036 3037 3038 3039 3039 3040 3041 3042 3042 3043 3043 3044 3044 3045 3045 3046 3046 3046 3047 3047 3048 3048 3048 3049 3049 3050 3050 3051 3051 3051 3051 3051 3052 3052 3052 3053 3053 3053 3053 3053 3053 3052 3052 3052 3052 3051 3051 3051 3050 3050
3027 3028 3028 3028 3028 3028 3028 3028 3028 3029 3029 3030 3030 3031 3031 3032 3033 3033 3034 3035 3036 3037 3037 3038 3039 3039 3040 3041 3041 3042 3042 3043 3043 3043 3044 3044 3045 3045 3045 3046 3046 3046 3047 3047 3048 3048 3048 3049 3049 3049 3049 3050 3050 3050 3050 3050 3050 3050 3050 3050 3050 3050 3049 3049 3049 3048 3048 3048 3047
3026 3026 3026 3026 3026 3027 3027 3027 3027 3028 3028 3028 3029 3029 3030 3030 3031 3032 3033 3034 3034 3035 3036 3037 3037 3038 3038 3039 3039 3040 3040 3041 3041 3042 3042 3043 3043 3043 3043 3044 3044 3044 3045 3045 3046 3046 3046 3047 3047 3047 3047 3048 3048 3048 3048 3048 3048 3048 3048 3048 3048 3047 3047 3047 3047 3046 3046 3046 3045
3024 3025 3025 3025 3025 3025 3025 3025 3025 3026 3026 3027 3027 3028 3028 3029 3030 3030 3031 3032 3033 3033 3034 3035 3036 3036 3037 3037 3038 3038 3038 3039 3039 3040 3040 3041 3041 3042 3042 3042 3042 3043 3043 3043 3044 3044 3044 3045 3045 3045 3045 3045 3046 3046 3046 3045 3045 3045 3045 3045 3045 3045 3045 3044 3044 3044 3044 3044 3043